Location: Windsor
(43.2292°N, 89.3015°W)
Time: 16:50:11
(UTC+00:00)

Altair - Visible Passes

Search period start: 26 May 2022 00:00
Search period end: 05 June 2022 00:00
Orbit: 1501 x 1683 km, 47.2° (Epoch: 25 May)

Date Brightness Start Highest point End Pass type
(mag) Time Alt. Az. Time Alt. Az. Time Alt. Az.
26 May 7.6 03:19:28 10° WNW 03:29:43 87° SSW 03:37:38 19° ESE visible
26 May 8.0 05:24:48 10° WNW 05:33:53 39° SW 05:35:36 37° SSW visible
27 May 7.7 02:54:13 10° WNW 03:04:29 90° NNE 03:13:21 15° ESE visible
27 May 8.0 04:59:29 10° WNW 05:08:46 42° SW 05:11:20 37° SSW visible
28 May 7.7 02:28:58 10° WNW 02:39:13 87° NNE 02:49:08 11° ESE visible
28 May 8.0 04:34:11 10° WNW 04:43:38 46° SW 04:47:06 35° S visible
28 May 9.3 06:43:44 10° WSW 06:45:05 11° WSW 06:45:05 11° WSW visible
29 May 7.8 02:03:44 10° WNW 02:13:58 84° NNE 02:24:08 10° ESE visible
29 May 7.9 04:08:54 10° WNW 04:18:30 49° SW 04:22:56 32° SSE visible
29 May 9.1 06:17:18 10° W 06:20:55 13° WSW 06:20:55 13° WSW visible
30 May 7.9 03:43:37 10° WNW 03:53:20 52° SW 03:58:49 28° SSE visible
30 May 9.0 05:51:18 10° W 05:56:22 15° WSW 05:56:49 15° SW visible
31 May 7.9 03:18:22 10° WNW 03:28:11 56° SW 03:34:44 23° SSE visible
31 May 9.0 05:25:30 10° W 05:31:20 17° WSW 05:32:44 17° SW visible
01 Jun 7.9 02:53:06 10° WNW 03:03:01 60° SW 03:10:43 18° SE visible
01 Jun 8.9 04:59:49 10° W 05:06:17 19° SW 05:08:43 18° SW visible
02 Jun 7.9 02:27:51 10° WNW 02:37:50 63° SW 02:46:43 14° SE visible
02 Jun 8.9 04:34:14 10° W 04:41:13 21° SW 04:44:44 18° SSW visible
03 Jun 7.9 02:02:36 10° WNW 02:12:38 67° SSW 02:22:37 10° SE visible
03 Jun 8.9 04:08:43 10° W 04:16:09 24° SW 04:20:48 17° SSW visible
04 Jun 8.8 03:43:16 10° WNW 03:51:04 26° SW 03:56:54 15° S visible
